Regional Weather Roundup
Issued by NWS Portland, ME

Home | Current Version | Previous Version | Text Only | Print | Product List | Glossary On
Versions: 1 2 3 4 5 6 7 8 9 10 11 12 13 14 15 16 17 18 19 20 21 22 23 24 25 26 27 28 29 30 31 32 33 34 35 36 37 38 39 40 41 42 43 44 45 46 47 48 49 50
000
ASUS41 KGYX 250910
RWRGYX
WEATHER ROUNDUP FOR MAINE AND NEW HAMPSHIRE
NATIONAL WEATHER SERVICE GRAY ME
500 AM EDT THU AUG 25 2016

MEZ002-005-006-010-012-015-018-020-021-024-026-027-029-251000-
MAINE

CITY           SKY/WX    TMP DP  RH WIND       PRES   REMARKS
PORTLAND       PTCLDY    67  60  78 CALM      30.05S
SANFORD        PTCLDY    64  61  90 SW5       30.07S
BAR HARBOR     CLOUDY    63  62  97 S6        30.05S
WISCASSET      PTCLDY    61  58  90 CALM      30.06F
ROCKLAND       CLOUDY    64  62  93 CALM      30.05S
FRYEBURG       CLEAR     66  61  84 CALM      30.05S
LEWISTONAUBURN PTCLDY    64  61  90 S6        30.04F
AUGUSTA        MOCLDY    62  60  93 S8        30.04S
WATERVILLE     MOCLDY    61  60  97 SW3       30.01S
BANGOR         CLOUDY    65  61  87 S6        30.02F
GREENVILLE       N/A     62  55  77 CALM      30.02F
MILLINOCKET    CLOUDY    63  61  93 SE3       30.01S
HOULTON        CLOUDY    65  62  90 S7        29.98F
PRESQUE ISLE   CLOUDY    63  61  93 S6        29.97F
FRENCHVILLE    CLOUDY    65  59  81 S7        29.95F
CARIBOU        CLOUDY    64  61  90 S5        29.96F
$$

NHZ002-005-008-009-011-012-014-251000-
NEW HAMPSHIRE

CITY           SKY/WX    TMP DP  RH WIND       PRES   REMARKS
PORTSMOUTH     PTCLDY    66  60  82 SW5       30.06S
ROCHESTER      PTCLDY    62  59  90 S3        30.07S
NASHUA         PTCLDY    63  61  93 CALM      30.09S
MANCHESTER     PTCLDY    67  60  78 SW6       30.07R
CONCORD        PTCLDY    63  59  87 CALM      30.08S
LACONIA        PTCLDY    67  61  81 W8        30.07F
PLYMOUTH       FOG       60  59  97 CALM      30.07S VSB 1/4
BERLIN         PTCLDY    55  52  89 CALM      30.06F
WHITEFIELD     PTCLDY    55  52  89 CALM      30.06F
JAFFREY        CLEAR     63  60  90 S6        30.11F
KEENE          CLEAR     57  57 100 CALM      30.10S
LEBANON        CLOUDY    59  57  93 NE7       30.06F
MT WASHINGTON  FOG       52  52 100 W31         N/A  VSB 1/8
$$

VTZ005-007-008-251000-
VERMONT

CITY           SKY/WX    TMP DP  RH WIND       PRES   REMARKS
ST JOHNSBURY     N/A     59  56  89 MISG      30.02F
MONTPELIER     CLEAR     62  58  86 CALM      30.08F
BURLINGTON     CLEAR     72  59  63 S9        29.99F
$$

MAZ007-012-024-CTZ003-RIZ002-NYZ038-NYZ072-251000-
SOUTHERN NEW ENGLAND AND NY

CITY           SKY/WX    TMP DP  RH WIND       PRES   REMARKS
BOSTON         CLOUDY    68  65  90 SW8       30.09F
WORCESTER      CLOUDY    64  61  90 SW14      30.12S
NANTUCKET      CLOUDY    69  65  86 S12       30.14F
PROVIDENCE     MOCLDY    67  64  90 S6        30.13
HARTFORD       PTCLDY    66  62  87 S7        30.11S
ALBANY         PTCLDY    68  62  81 S8        30.06F
NEW YORK CITY  PTCLDY    74  62  66 SW13      30.12R
$$

ANZ081-ANZ082-ANZ150-NHZ014-MEZ023>029-251000-
COASTAL MARINE OBSERVATIONS

STATION/POSITION TIME  TEMP    WIND        PRES    WAVE
                       AIR SEA DIR/SP/G            HT/PER
                 (UTC) (F)     (DEG/KT/KT) (MB)    (FT/S)
MOUNT DESERT ROC 0900   63     200/ 17/ 17 1018.2R
MATINICUS ROCK   0900   63     210/ 19/ 20 1017.6R
ISLE OF SHOALS   0900   67     210/ 16/ 17 1018.1S
JEFFREYS LEDGE   0808      65                N/A     3/ 4
CASHES LEDGE BUO 0850   70 68  210/ 14/ 17 1018.4R   3/ 5
GEORGES BANK BUO 0850   68 68              1022.0R   2/ 9
$$

.............KEY..............
   WCI - WIND CHILL
   TC  - TEMPERATURE IN CELSIUS
   VSB - VISIBILITY IN MILES
   HX  - HEAT INDEX
   FAIR- INDICATES FEW OR NO CLOUDS BELOW 12,000 FT, WITH NO
         SIGNIFICANT WEATHER AND/OR OBSTRUCTIONS TO VISIBILITY.






USA.gov is the U.S. government's official web portal to all federal, state and local government web resources and services.